Regional Weather Roundup
Issued by NWS

Home | Current Version | Previous Version | Text Only | Print | Product List | Glossary Off
Versions: 1 2 3 4 5 6 7 8 9 10 11 12 13 14 15 16 17 18 19 20 21 22 23 24 25 26 27 28 29 30 31 32 33 34 35 36 37 38 39 40 41 42 43 44 45 46 47 48 49 50

000
ASUS43 KMPX 280510
RWRMN
WEATHER ROUNDUP FOR MINNESOTA
NATIONAL WEATHER SERVICE TWIN CITIES/CHANHASSEN MN
1100 PM CST MON FEB 27 2017


NOTE: "FAIR" INDICATES FEW OR NO CLOUDS BELOW 12,000 FEET WITH NO
SIGNIFICANT WEATHER AND/OR OBSTRUCTIONS TO VISIBILITY. N/A MEANS
CURRENT SKY AND/OR WEATHER CONDITIONS ARE NOT AVAILABLE.

MNZ060>063-068>070-280600-
   Twin Cities Metro

CITY           SKY/WX    TMP DP  RH WIND       PRES   REMARKS
TWIN CITIES    CLOUDY    36  27  69 SE8       29.85F
ST PAUL        CLOUDY    34  28  79 SE7       29.86F WCI  28
CRYSTAL        CLOUDY    37  26  64 E3        29.83F
BLAINE         CLOUDY    39  28  65 SE8       29.84F
LAKEVILLE      CLOUDY    34  30  86 SE3       29.84F
EDEN PRAIRIE   CLOUDY    37  28  70 E7        29.82F
SOUTH ST PAUL  CLOUDY    37  27  69 S5        29.85F
LAKE ELMO      FAIR      36  28  75 CALM      29.86F
$$
MNZ001>005-007-008-013>017-022>024-027-028-280600-
   Northwest Minnesota

CITY           SKY/WX    TMP DP  RH WIND       PRES   REMARKS
BEMIDJI        CLOUDY    26  15  64 N8        29.82F WCI  17
HALLOCK        CLOUDY    16  10  79 N12       29.96S WCI   3
ROSEAU         FLURRIES  18  12  79 N8        29.92F WCI   7
WARROAD        LGT SNOW  18  12  79 N8        29.93F WCI   7
THIEF RVR FALL CLOUDY    20  16  84 N13       29.90R WCI   7
CROOKSTON      CLOUDY    21  18  86 N13       29.92R WCI   9
FOSSTON        CLOUDY    21  16  79 N8        29.85F WCI  12
DETROIT LAKES  CLOUDY    30  27  86 NW7       29.81S WCI  23
MOORHEAD       CLOUDY    25  19  80 N14       29.85F WCI  13
PARK RAPIDS    CLOUDY    31  21  66 NE3       29.79S
MAHNOMEN       FAIR      24  17  74 NE10      29.83S WCI  13
$$
MNZ006-009>011-018-025>026-280600-
   North Central Minnesota

CITY           SKY/WX    TMP DP  RH WIND       PRES   REMARKS
BAUDETTE       LGT SNOW  21  18  88 N6        29.90S FOG     WCI  13
FLAG ISLAND    FLURRIES  16  10  79 N14       29.94F WCI   1
INTL FALLS     CLOUDY    23  17  78 E6        29.89S WCI  16
WASKISH        CLOUDY    25  16  68 NE7       29.87F WCI  17
BIG FORK       CLOUDY    28  19  69 NE6       29.85S WCI  22
LONGVILLE      CLOUDY    28  25  86 CALM      29.81S
GRAND RAPIDS   CLOUDY    31  23  72 SE3       29.84S
CRANE LAKE     MIX PCPN  23  19  86 CALM      29.91F
ORR            CLOUDY    27  16  63 CALM      29.84S
COOK           CLOUDY    27  19  74 CALM      29.86S
WALKER         CLOUDY    28  20  70 N5        29.82R WCI  23
$$
MNZ012-019>021-037-280600-
   Northeast Minnesota

CITY           SKY/WX    TMP DP  RH WIND       PRES   REMARKS
DULUTH         CLOUDY    27  24  89 E5        29.86S WCI  22
ELY            CLOUDY    27  21  80 SE5       29.87S WCI  21
HIBBING        CLOUDY    27  23  85 SE7       29.84F WCI  19
EVELETH        CLOUDY    30  22  72 E3        29.86F
DULUTH HARBOR  MOCLDY    34  30  86 NE14      29.91S WCI  24
TWO HARBORS    PTCLDY    28  25  86 N5        29.88S WCI  23
SILVER BAY     MOCLDY    27  27 100 N3        29.88F
GRAND MARAIS     N/A     29  24  82 N3        29.94F
G MARAIS ARPRT CLOUDY    21  18  86 CALM      29.88S FOG
$$
MNZ029>031-032-039>041-046>048-054>057-064-280600-
   West Central Minnesota

CITY           SKY/WX    TMP DP  RH WIND       PRES   REMARKS
FERGUS FALLS   CLOUDY    30  27  86 NE5       29.84S WCI  25
WHEATON        CLOUDY    30  27  86 NW9       29.83S WCI  22
MORRIS         CLOUDY    32  28  86 SE5       29.79R WCI  27
ALEXANDRIA     MOCLDY    34  27  75 S3        29.80R
ELBOW LAKE     CLOUDY    32  30  92 SW5       29.80R WCI  27
WADENA         CLOUDY    34  27  75 S10       29.78S WCI  26
GLENWOOD       MOCLDY    36  28  75 SE5       29.80S
APPLETON       CLOUDY    37  28  70 CALM      29.80R
BENSON         CLOUDY    37  27  65 S6        29.81S
ORTONVILLE     PTCLDY    32  28  86 NW8       29.79S WCI  25
MADISON        CLOUDY    37  32  81 E3        29.78S
WILLMAR        CLOUDY    36  30  80 CALM      29.80F
$$
MNZ033>034-036-042>043-049>051-058-059-280600-
   Central Minnesota

CITY           SKY/WX    TMP DP  RH WIND       PRES   REMARKS
ST CLOUD       MOCLDY    32  26  78 CALM      29.83F
SAUK CENTRE    CLOUDY    33  28  80 S7        29.80F WCI  27
PAYNESVILLE    CLOUDY    35  29  79 E3        29.81F
AITKIN         CLOUDY    36  21  55 SE7       29.82F
PINE RIVER     CLOUDY    30  25  80 SE5       29.84S WCI  25
BRAINERD       CLOUDY    35  25  66 S8G20     29.82S WCI  29
STAPLES        CLOUDY    32  25  74 S5        29.80S WCI  27
LONG PRAIRIE   CLOUDY    34  27  75 SE10      29.80F WCI  26
LITTLE FALLS   CLOUDY    36  23  60 SE7       29.82F
LITCHFIELD     CLOUDY    36  30  80 E7        29.80F
BUFFALO        MOCLDY    34  28  77 E5        29.82F WCI  30
MAPLE LAKE     MOCLDY    33  29  83 SE3       29.82F
HUTCHINSON     CLOUDY    34  31  88 E6        29.81F WCI  29
$$
MNZ037-044-045-052-053-280600-
   East Central Minnesota

CITY           SKY/WX    TMP DP  RH WIND       PRES   REMARKS
PRINCETON      PTCLDY    34  25  69 CALM      29.83F
MORA           CLOUDY    32  23  69 SE3       29.86F
CAMBRIDGE      CLOUDY    37  25  60 SE3       29.82F
RUSH CITY      CLOUDY    34  24  69 SE5       29.85F WCI  29
MOOSE LAKE     CLOUDY    28  25  86 CALM      29.86R
HINCKLEY       MOCLDY    34  25  69 CALM      29.86S
CLOQUET        CLOUDY    27  25  93 CALM      29.86F
MCGREGOR       CLOUDY    32  25  74 E5        29.85S WCI  27
$$
MNZ071>073-080-081-089-090-097-098-280600-
   Southwest Minnesota

CITY           SKY/WX    TMP DP  RH WIND       PRES   REMARKS
MONTEVIDEO     CLOUDY    34  28  80 CALM      29.81R
GRANITE FALLS  CLOUDY    35  31  87 CALM      29.80S
CANBY          CLOUDY    35  31  83 CALM      29.78S
MARSHALL       CLEAR     32  28  85 SE5       29.77S WCI  27
REDWOOD FALLS  CLOUDY    35  29  78 SE8       29.78F WCI  29
OLIVIA         MOCLDY    34  30  86 SE8       29.77F WCI  27
PIPESTONE      PTCLDY    36  27  69 SE5       29.73S
WINDOM         CLOUDY    34  30  86 E5        29.77F WCI  30
JACKSON        CLOUDY    37  32  81 S7        29.76F
TRACY          CLEAR     33  30  91 SE6       29.76S WCI  27
SLAYTON        CLEAR     31  30  94 SE7       29.75F WCI  25
$$
MNZ065>067-074>077-082>085-091>093-280600-
   South Central Minnesota

CITY           SKY/WX    TMP DP  RH WIND       PRES   REMARKS
MANKATO          N/A     37  31  78 SE10      29.81F
NEW ULM        CLOUDY    36  28  75 SE8       29.79F
ST JAMES       PTCLDY    34  30  86 CALM      29.80F
FAIRMONT       CLOUDY    37  31  78 S14       29.79F
GLENCOE        CLOUDY    35  32  90 SE6       29.80F WCI  30
FARIBAULT      CLOUDY    37  30  75 SE8       29.84F
OWATONNA       CLOUDY    37  30  75 SE9       29.83F
WASECA         CLOUDY    36  32  87 SE8       29.83F
ALBERT LEA     LGT RAIN  39  30  70 SE8       29.82F
$$
MNZ078>079-086>088-094>096-280600-
   Southeast Minnesota

CITY           SKY/WX    TMP DP  RH WIND       PRES   REMARKS
ROCHESTER      CLOUDY    37  31  78 SE8       29.86F
RED WING       CLOUDY    37  27  65 SE9       29.86F
STANTON        CLOUDY    39  30  70 SE7       29.83F
WINONA         CLOUDY    37  32  81 S5        29.90F
AUSTIN         DRIZZLE   37  30  75 SE3       29.84F
PRESTON        CLOUDY    39  31  73 S12       29.87F
$$
ABBREVIATIONS USED IN REMARKS
   TC - TEMPERATURES IN CELSIUS
  WCI - WIND CHILL INDEX
   HX - HEAT INDEX
  VSB - VISIBILITY
$$



USA.gov is the U.S. government's official web portal to all federal, state and local government web resources and services.